Weather History for KAGC - November, 2012

Change the Weather History Date:

Saturday, November 24, 2012

  Actual Average Record
Temperature  
Mean Temperature 30 °F -  
Max Temperature 32 °F 49 °F 68 °F (2014)
Min Temperature 28 °F 31 °F 12 °F (2005)
Degree Days  
Heating Degree Days 35    
Moisture  
Dew Point 21 °F    
Average Humidity 68    
Maximum Humidity 86    
Minimum Humidity 54    
Precipitation  
Precipitation 0.01 in - - ()
Sea Level Pressure  
Sea Level Pressure 30.04 in    
Wind  
Wind Speed 13 mph (West)    
Max Wind Speed 18 mph    
Max Gust Speed 28 mph    
Visibility 7 miles    
Events Snow    
Averages and records for this station are not official NWS values.
T = Trace of Precipitation, MM = Missing Value Source: NWS Daily Summary

Daily Weather History Graph

Daily Weather History Graph

Search for Another Location

Airport or City:

Trip Planner

Search our weather history database for the weather conditions in past years. The results will help you decide how hot, cold, wet, or windy it might be!

Date:

Astronomy

Nov. 24, 2012 Rise Set
Actual Time 7:16 AM EST 4:56 PM EST
Civil Twilight 6:46 AM EST 5:26 PM EST
Nautical Twilight 6:13 AM EST 5:59 PM EST
Astronomical Twilight 5:40 AM EST 6:32 PM EST
Moon 2:40 PM EST (11/24) 3:31 AM EST (11/24)
Length of Visible Light 10h 39m
Length of Day
9h 39m
Waxing Gibbous, 87% of the Moon is Illuminated
Nov 24
Waxing Gibbous
Nov 28
Full
Dec 6
Last Quarter
Dec 13
New
Dec 20
First Quarter

Hourly Weather History & Observations

Time (EST) Temp. Windchill Dew Point Humidity Pressure Visibility Wind Dir Wind Speed Gust Speed Precip Events Conditions
12:53 AM 30.9 °F 21.2 °F 18.0 °F 59% 30.00 in 10.0 mi West 12.7 mph 27.6 mph N/A   Overcast
1:53 AM 30.0 °F 19.1 °F 18.0 °F 61% 30.00 in 10.0 mi WSW 15.0 mph - N/A   Overcast
2:53 AM 30.0 °F 18.3 °F 19.0 °F 64% 30.00 in 10.0 mi West 17.3 mph 24.2 mph N/A   Overcast
3:53 AM 30.0 °F 18.7 °F 19.9 °F 66% 30.00 in 10.0 mi West 16.1 mph 21.9 mph 0.00 in   Overcast
4:53 AM 30.0 °F 19.1 °F 19.9 °F 66% 30.01 in 10.0 mi West 15.0 mph 19.6 mph N/A   Overcast
5:03 AM 30.2 °F 20.2 °F 21.2 °F 69% 29.97 in 10.0 mi West 12.7 mph 19.6 mph N/A   Overcast
5:53 AM 30.0 °F 17.9 °F 21.0 °F 69% 30.03 in 10.0 mi West 18.4 mph 23.0 mph N/A   Overcast
6:32 AM 28.4 °F 16.6 °F 21.2 °F 74% 29.99 in 1.8 mi West 16.1 mph - 0.00 in Snow Light Snow
6:53 AM 28.0 °F 17.5 °F 23.0 °F 81% 30.04 in 1.5 mi West 12.7 mph - 0.00 in Snow Light Snow
7:27 AM 28.4 °F 18.5 °F 23.0 °F 80% 30.00 in 1.2 mi WSW 11.5 mph - 0.00 in Snow Light Snow
7:53 AM 28.0 °F 19.3 °F 23.0 °F 81% 30.05 in 1.5 mi WSW 9.2 mph - 0.00 in Snow Light Snow
8:53 AM 28.9 °F 18.2 °F 24.1 °F 82% 30.06 in 2.0 mi WSW 13.8 mph 19.6 mph 0.00 in Snow Light Snow
8:58 AM 28.4 °F 18.5 °F 24.8 °F 86% 30.01 in 3.0 mi West 11.5 mph 20.7 mph 0.00 in Snow Light Snow
9:46 AM 30.2 °F 19.3 °F 23.0 °F 75% 30.01 in 7.0 mi West 15.0 mph 26.5 mph 0.00 in Snow Light Snow
9:53 AM 30.0 °F 19.5 °F 23.0 °F 75% 30.06 in 9.0 mi West 13.8 mph 24.2 mph 0.00 in   Overcast
10:53 AM 30.9 °F 21.2 °F 21.9 °F 69% 30.07 in 10.0 mi West 12.7 mph 24.2 mph N/A   Overcast
11:53 AM 30.9 °F 21.7 °F 23.0 °F 72% 30.06 in 5.0 mi West 11.5 mph - 0.00 in Snow Light Snow
12:53 PM 30.9 °F 21.2 °F 23.0 °F 72% 30.04 in 2.5 mi West 12.7 mph 19.6 mph 0.01 in Snow Light Snow
1:11 PM 32.0 °F 22.5 °F 24.8 °F 75% 29.99 in 4.0 mi West 12.7 mph 19.6 mph 0.00 in Snow Light Snow
1:53 PM 32.0 °F 22.1 °F 21.9 °F 66% 30.04 in 9.0 mi West 13.8 mph 20.7 mph 0.00 in   Overcast
2:22 PM 32.0 °F 23.0 °F 23.0 °F 69% 29.99 in 4.0 mi West 11.5 mph 21.9 mph 0.00 in Snow Light Snow
2:32 PM 30.2 °F 20.8 °F 21.2 °F 69% 29.99 in 1.8 mi WNW 11.5 mph 21.9 mph 0.00 in Snow Light Snow
2:39 PM 30.2 °F 21.9 °F 23.0 °F 75% 30.00 in 3.0 mi West 9.2 mph 21.9 mph 0.00 in Snow Light Snow
2:53 PM 30.9 °F 20.2 °F 21.0 °F 67% 30.05 in 7.0 mi West 15.0 mph 21.9 mph 0.00 in Snow Light Snow
3:53 PM 30.9 °F 20.7 °F 19.9 °F 64% 30.06 in 10.0 mi West 13.8 mph 25.3 mph 0.00 in   Overcast
4:53 PM 30.9 °F 21.7 °F 19.0 °F 61% 30.08 in 10.0 mi West 11.5 mph 19.6 mph N/A   Overcast
5:53 PM 30.9 °F 21.7 °F 18.0 °F 59% 30.09 in 10.0 mi WNW 11.5 mph 20.7 mph N/A   Overcast
6:53 PM 30.0 °F 20.5 °F 18.0 °F 61% 30.10 in 10.0 mi West 11.5 mph 19.6 mph N/A   Overcast
7:53 PM 30.0 °F 19.5 °F 18.0 °F 61% 30.10 in 10.0 mi West 13.8 mph 23.0 mph N/A   Overcast
8:53 PM 30.0 °F 20.5 °F 17.1 °F 59% 30.11 in 10.0 mi West 11.5 mph - N/A   Overcast
9:53 PM 30.0 °F 24.1 °F 15.1 °F 54% 30.11 in 10.0 mi Variable 5.8 mph 16.1 mph N/A   Overcast
10:53 PM 30.0 °F 24.1 °F 17.1 °F 59% 30.09 in 10.0 mi WNW 5.8 mph - N/A   Overcast
11:06 PM 28.4 °F 22.2 °F 17.6 °F 64% 30.03 in 10.0 mi West 5.8 mph - N/A   Overcast
11:53 PM 28.9 °F 21.9 °F 18.0 °F 64% 30.08 in 10.0 mi West 6.9 mph 16.1 mph N/A   Overcast